{"data":{"norad_id":68596,"epoch":"2026-09-20T01:04:21.906336Z","epoch_age_seconds":105691,"freshness":"FRESH","line1":"1 68596U 26072Z   26263.04469799  .00001844  00000+0  27083-3 0  9997","line2":"2 68596  51.8994 128.6654 0001375 109.8403 250.2708 14.79936690 25279","mean_motion":14.7993669,"eccentricity":0.0001375,"inclination_deg":51.8994,"raan_deg":128.6654,"arg_perigee_deg":109.8403,"mean_anomaly_deg":250.2708,"bstar":0.00027083,"rev_number":2527,"period_min":97.301459564463,"perigee_km":628.56042739872,"apogee_km":630.48753416844,"semimajor_km":7007.6609807836,"source":"CELESTRAK","updated_at":"2026-09-20T09:00:24.354081Z"}}